KQA251 FSIA-HKJK

Flight info

Callsign KQA251
Flight time 2h 47m
Altitude 34000
Route NEVIN1B NEVIN DCT DANEL UM311 EVOGO EVOGO1A
Aircraft B738/M-SDE1E2E3FGHIJ2J3J4J5M1RWXYZ/LB1D1

Departure

Time 2026-04-18 07:54
Airport Seychelles International Airport (FSIA)

Arrival

Time 2026-04-18 10:42
Airport Jomo Kenyatta International Airport (HKJK)
Time Latitude Longitude Altitude Speed Heading
2026-04-18 06:28 -4.67036 55.51167 18 ft 0 kts 214°
2026-04-18 07:42 -4.67035 55.51168 18 ft 2 kts 216°
2026-04-18 07:42 -4.67027 55.51174 18 ft 2 kts 216°
2026-04-18 07:43 -4.67014 55.51183 18 ft 2 kts 222°
2026-04-18 07:43 -4.67007 55.51194 18 ft 2 kts 257°
2026-04-18 07:43 -4.67007 55.51208 18 ft 2 kts 297°
2026-04-18 07:43 -4.67016 55.51221 18 ft 2 kts 302°
2026-04-18 07:44 -4.67018 55.51224 18 ft 0 kts 302°
2026-04-18 07:47 -4.67011 55.51214 18 ft 4 kts 306°
2026-04-18 07:47 -4.66967 55.51198 18 ft 5 kts 11°
2026-04-18 07:47 -4.66929 55.51203 18 ft 5 kts 359°
2026-04-18 07:48 -4.66897 55.51188 18 ft 5 kts 314°
2026-04-18 07:48 -4.66874 55.51160 18 ft 5 kts 306°
2026-04-18 07:48 -4.66855 55.51132 18 ft 5 kts 305°
2026-04-18 07:48 -4.66836 55.51104 18 ft 5 kts 304°
2026-04-18 07:49 -4.66818 55.51077 18 ft 4 kts 304°
2026-04-18 07:49 -4.66801 55.51052 18 ft 4 kts 305°
2026-04-18 07:49 -4.66782 55.51030 18 ft 4 kts 322°
2026-04-18 07:49 -4.66763 55.51023 18 ft 0 kts 356°
2026-04-18 07:50 -4.66762 55.51023 18 ft 0 kts 356°
2026-04-18 07:51 -4.66731 55.51030 18 ft 8 kts 29°
2026-04-18 07:51 -4.66712 55.51042 18 ft 4 kts 35°
2026-04-18 07:51 -4.66697 55.51063 18 ft 4 kts 71°
2026-04-18 07:52 -4.66693 55.51087 18 ft 3 kts 102°
2026-04-18 07:52 -4.66704 55.51106 18 ft 0 kts 125°
2026-04-18 07:54 -4.66791 55.51232 18 ft 57 kts 124°
2026-04-18 07:54 -4.67150 55.51753 18 ft 122 kts 124°
2026-04-18 07:54 -4.67728 55.52597 83 ft 164 kts 125°
2026-04-18 07:54 -4.68396 55.53539 734 ft 172 kts 126°
2026-04-18 07:55 -4.69126 55.54500 1571 ft 169 kts 128°
2026-04-18 07:55 -4.69778 55.55312 2646 ft 136 kts 127°
2026-04-18 07:55 -4.70346 55.56137 2660 ft 166 kts 124°
2026-04-18 07:55 -4.71063 55.57233 2471 ft 206 kts 123°
2026-04-18 07:56 -4.71894 55.58483 2621 ft 224 kts 123°
2026-04-18 07:56 -4.72784 55.59825 2837 ft 239 kts 123°
2026-04-18 07:56 -4.73504 55.61334 3306 ft 242 kts 103°
2026-04-18 07:56 -4.73471 55.62999 3849 ft 242 kts 75°
2026-04-18 07:57 -4.72663 55.64463 4420 ft 242 kts 47°
2026-04-18 07:57 -4.71264 55.65414 4779 ft 252 kts 19°
2026-04-18 07:57 -4.69494 55.65498 5066 ft 262 kts 345°
2026-04-18 07:57 -4.67923 55.64602 5595 ft 264 kts 318°
2026-04-18 07:58 -4.65755 55.61621 6784 ft 268 kts 297°
2026-04-18 07:58 -4.64882 55.59967 7400 ft 270 kts 296°
2026-04-18 07:58 -4.64010 55.58290 8012 ft 273 kts 296°
2026-04-18 07:59 -4.63114 55.56606 8617 ft 276 kts 297°
2026-04-18 07:59 -4.62195 55.54905 9221 ft 279 kts 297°
2026-04-18 07:59 -4.61261 55.53189 9830 ft 282 kts 297°
2026-04-18 07:59 -4.60313 55.51458 10428 ft 286 kts 297°
2026-04-18 08:00 -4.59342 55.49695 10899 ft 295 kts 298°
2026-04-18 08:00 -4.58319 55.47845 11160 ft 311 kts 298°
2026-04-18 08:00 -4.57248 55.45904 11386 ft 327 kts 298°
2026-04-18 08:00 -4.56148 55.43840 11601 ft 343 kts 297°
2026-04-18 08:01 -4.55026 55.41709 11801 ft 358 kts 297°
2026-04-18 08:01 -4.53825 55.39430 12002 ft 372 kts 297°
2026-04-18 08:01 -4.52619 55.37143 12358 ft 379 kts 297°
2026-04-18 08:01 -4.51379 55.34796 12870 ft 383 kts 297°
2026-04-18 08:02 -4.50538 55.33206 13221 ft 385 kts 297°
2026-04-18 08:02 -4.48866 55.30045 13897 ft 389 kts 297°
2026-04-18 08:02 -4.47593 55.27642 14400 ft 392 kts 297°
2026-04-18 08:02 -4.46311 55.25220 14897 ft 396 kts 297°
2026-04-18 08:03 -4.45013 55.22769 15386 ft 399 kts 297°
2026-04-18 08:03 -4.44131 55.21105 15707 ft 401 kts 297°
2026-04-18 08:03 -4.42819 55.18627 16163 ft 405 kts 297°
2026-04-18 08:03 -4.41066 55.15318 16739 ft 409 kts 297°
2026-04-18 08:04 -4.39785 55.12750 17153 ft 412 kts 294°
2026-04-18 08:04 -4.39051 55.10949 17423 ft 415 kts 290°
2026-04-18 08:04 -4.38193 55.08226 17806 ft 418 kts 285°
2026-04-18 08:04 -4.37503 55.05379 18188 ft 421 kts 283°
2026-04-18 08:05 -4.36896 55.02502 18581 ft 423 kts 282°
2026-04-18 08:05 -4.36294 54.99613 18956 ft 426 kts 282°
2026-04-18 08:05 -4.35680 54.96695 19250 ft 430 kts 283°
2026-04-18 08:05 -4.35053 54.93739 19392 ft 437 kts 283°
2026-04-18 08:06 -4.34416 54.90758 19725 ft 439 kts 283°
2026-04-18 08:06 -4.33776 54.87771 20085 ft 439 kts 283°
2026-04-18 08:06 -4.33131 54.84766 20426 ft 441 kts 283°
2026-04-18 08:06 -4.32485 54.81765 20755 ft 442 kts 283°
2026-04-18 08:07 -4.31835 54.78749 21075 ft 443 kts 283°
2026-04-18 08:07 -4.31187 54.75732 21388 ft 444 kts 283°
2026-04-18 08:07 -4.30537 54.72706 21687 ft 445 kts 283°
2026-04-18 08:07 -4.29884 54.69672 21974 ft 446 kts 283°
2026-04-18 08:08 -4.29229 54.66630 22253 ft 447 kts 282°
2026-04-18 08:08 -4.28563 54.63539 22528 ft 449 kts 282°
2026-04-18 08:08 -4.27911 54.60520 22786 ft 450 kts 282°
2026-04-18 08:08 -4.27250 54.57453 23038 ft 451 kts 282°
2026-04-18 08:09 -4.26578 54.54339 23268 ft 453 kts 282°
2026-04-18 08:09 -4.25920 54.51293 23482 ft 454 kts 282°
2026-04-18 08:09 -4.25251 54.48197 23688 ft 456 kts 282°
2026-04-18 08:09 -4.24580 54.45090 23944 ft 456 kts 282°
2026-04-18 08:10 -4.23907 54.41972 24188 ft 457 kts 282°
2026-04-18 08:10 -4.23231 54.38843 24315 ft 461 kts 282°
2026-04-18 08:10 -4.22552 54.35705 24499 ft 462 kts 282°
2026-04-18 08:10 -4.21871 54.32557 24642 ft 463 kts 282°
2026-04-18 08:11 -4.21188 54.29398 24784 ft 465 kts 282°
2026-04-18 08:11 -4.20505 54.26240 24984 ft 466 kts 282°
2026-04-18 08:11 -4.19818 54.23066 25164 ft 467 kts 283°
2026-04-18 08:11 -4.19127 54.19874 25341 ft 468 kts 283°
2026-04-18 08:12 -4.18438 54.16689 25513 ft 469 kts 283°
2026-04-18 08:12 -4.17745 54.13489 25681 ft 470 kts 283°
2026-04-18 08:12 -4.17051 54.10285 25846 ft 472 kts 283°
2026-04-18 08:12 -4.16356 54.07078 26006 ft 473 kts 283°
2026-04-18 08:13 -4.15657 54.03848 26163 ft 474 kts 283°
2026-04-18 08:13 -4.14957 54.00616 26315 ft 475 kts 283°
2026-04-18 08:13 -4.14255 53.97378 26467 ft 476 kts 283°
2026-04-18 08:13 -4.13553 53.94139 26623 ft 477 kts 283°
2026-04-18 08:14 -4.12851 53.90905 26855 ft 476 kts 283°
2026-04-18 08:14 -4.12148 53.87663 27074 ft 475 kts 283°
2026-04-18 08:14 -4.11448 53.84432 27282 ft 475 kts 283°
2026-04-18 08:14 -4.10746 53.81200 27502 ft 474 kts 283°
2026-04-18 08:15 -4.10048 53.77980 27719 ft 474 kts 283°
2026-04-18 08:15 -4.09349 53.74760 27940 ft 473 kts 283°
2026-04-18 08:15 -4.08648 53.71533 28163 ft 473 kts 283°
2026-04-18 08:15 -4.07952 53.68324 28388 ft 472 kts 283°
2026-04-18 08:16 -4.07255 53.65115 28616 ft 471 kts 283°
2026-04-18 08:16 -4.06557 53.61901 28848 ft 471 kts 283°
2026-04-18 08:16 -4.05862 53.58700 29084 ft 470 kts 283°
2026-04-18 08:16 -4.05168 53.55508 29322 ft 469 kts 283°
2026-04-18 08:17 -4.04476 53.52325 29563 ft 468 kts 283°
2026-04-18 08:17 -4.03783 53.49137 29811 ft 468 kts 283°
2026-04-18 08:17 -4.03091 53.45952 30063 ft 467 kts 283°
2026-04-18 08:17 -4.02407 53.42788 30318 ft 465 kts 283°
2026-04-18 08:18 -4.01711 53.39616 30550 ft 465 kts 283°
2026-04-18 08:18 -4.01026 53.36456 30769 ft 465 kts 283°
2026-04-18 08:18 -4.00336 53.33281 30967 ft 466 kts 283°
2026-04-18 08:18 -3.99646 53.30118 31289 ft 463 kts 283°
2026-04-18 08:19 -3.98962 53.26983 31557 ft 462 kts 283°
2026-04-18 08:19 -3.98277 53.23831 31758 ft 462 kts 283°
2026-04-18 08:19 -3.97590 53.20685 31993 ft 462 kts 284°
2026-04-18 08:19 -3.96909 53.17552 32231 ft 461 kts 284°
2026-04-18 08:20 -3.96227 53.14420 32403 ft 462 kts 284°
2026-04-18 08:20 -3.95540 53.11266 32630 ft 462 kts 284°
2026-04-18 08:20 -3.94857 53.08132 32850 ft 462 kts 284°
2026-04-18 08:20 -3.94173 53.04990 33065 ft 461 kts 284°
2026-04-18 08:21 -3.93489 53.01853 33283 ft 461 kts 284°
2026-04-18 08:21 -3.92803 52.98707 33503 ft 461 kts 284°
2026-04-18 08:21 -3.92120 52.95572 33722 ft 461 kts 284°
2026-04-18 08:21 -3.91437 52.92441 33912 ft 461 kts 284°
2026-04-18 08:22 -3.90761 52.89344 33932 ft 463 kts 284°
2026-04-18 08:22 -3.89388 52.83053 33929 ft 461 kts 284°
2026-04-18 08:23 -3.88023 52.76798 33934 ft 460 kts 284°
2026-04-18 08:23 -3.86658 52.70538 33935 ft 461 kts 284°
2026-04-18 08:24 -3.85288 52.64263 33935 ft 461 kts 284°
2026-04-18 08:24 -3.83919 52.58001 33935 ft 461 kts 284°
2026-04-18 08:25 -3.82548 52.51733 33935 ft 461 kts 283°
2026-04-18 08:25 -3.81176 52.45464 33935 ft 461 kts 283°
2026-04-18 08:26 -3.79839 52.39180 33935 ft 461 kts 281°
2026-04-18 08:26 -3.78854 52.32836 33935 ft 462 kts 279°
2026-04-18 08:27 -3.77917 52.26516 33935 ft 462 kts 279°
2026-04-18 08:27 -3.76948 52.20165 33935 ft 462 kts 280°
2026-04-18 08:28 -3.75967 52.13809 33935 ft 462 kts 280°
2026-04-18 08:28 -3.74982 52.07460 33935 ft 462 kts 280°
2026-04-18 08:29 -3.73999 52.01103 33935 ft 462 kts 280°
2026-04-18 08:29 -3.73014 51.94752 33935 ft 462 kts 280°
2026-04-18 08:30 -3.72027 51.88403 33935 ft 462 kts 280°
2026-04-18 08:30 -3.71038 51.82050 33935 ft 462 kts 280°
2026-04-18 08:31 -3.70049 51.75696 33935 ft 462 kts 280°
2026-04-18 08:31 -3.69062 51.69362 33935 ft 462 kts 280°
2026-04-18 08:32 -3.68072 51.63012 33935 ft 462 kts 280°
2026-04-18 08:32 -3.67079 51.56649 33935 ft 462 kts 279°
2026-04-18 08:33 -3.66087 51.50295 33935 ft 462 kts 279°
2026-04-18 08:33 -3.65095 51.43941 33935 ft 463 kts 279°
2026-04-18 08:34 -3.64101 51.37573 33935 ft 463 kts 279°
2026-04-18 08:34 -3.63107 51.31216 33935 ft 463 kts 279°
2026-04-18 08:35 -3.62112 51.24849 33935 ft 463 kts 279°
2026-04-18 08:35 -3.61114 51.18474 33935 ft 463 kts 279°
2026-04-18 08:36 -3.60118 51.12108 33935 ft 463 kts 279°
2026-04-18 08:36 -3.59129 51.05788 33935 ft 463 kts 279°
2026-04-18 08:37 -3.58132 50.99425 33935 ft 463 kts 279°
2026-04-18 08:37 -3.57133 50.93049 33935 ft 463 kts 279°
2026-04-18 08:38 -3.56135 50.86688 33935 ft 463 kts 279°
2026-04-18 08:38 -3.55135 50.80313 33935 ft 463 kts 279°
2026-04-18 08:39 -3.54135 50.73940 33935 ft 463 kts 279°
2026-04-18 08:39 -3.53137 50.67578 33935 ft 463 kts 279°
2026-04-18 08:40 -3.52137 50.61212 33935 ft 463 kts 279°
2026-04-18 08:40 -3.51134 50.54834 33935 ft 463 kts 279°
2026-04-18 08:41 -3.50132 50.48461 33935 ft 463 kts 279°
2026-04-18 08:41 -3.49133 50.42108 33935 ft 462 kts 279°
2026-04-18 08:42 -3.48132 50.35748 33935 ft 462 kts 279°
2026-04-18 08:42 -3.47135 50.29396 33935 ft 462 kts 279°
2026-04-18 08:43 -3.46134 50.23039 33935 ft 462 kts 279°
2026-04-18 08:43 -3.45132 50.16680 33935 ft 462 kts 279°
2026-04-18 08:44 -3.44130 50.10329 33935 ft 462 kts 279°
2026-04-18 08:44 -3.43129 50.03989 33935 ft 462 kts 279°
2026-04-18 08:45 -3.42125 49.97622 34171 ft 461 kts 279°
2026-04-18 08:45 -3.41634 49.94513 34412 ft 458 kts 279°
2026-04-18 08:45 -3.41129 49.91317 34561 ft 458 kts 279°
2026-04-18 08:45 -3.40640 49.88220 34721 ft 458 kts 279°
2026-04-18 08:46 -3.40142 49.85067 34913 ft 457 kts 279°
2026-04-18 08:46 -3.39646 49.81929 35089 ft 456 kts 279°
2026-04-18 08:46 -3.39151 49.78797 35273 ft 455 kts 279°
2026-04-18 08:46 -3.38659 49.75684 35454 ft 454 kts 279°
2026-04-18 08:47 -3.38166 49.72562 35635 ft 454 kts 279°
2026-04-18 08:47 -3.37672 49.69435 35815 ft 453 kts 279°
2026-04-18 08:47 -3.37181 49.66329 35920 ft 453 kts 279°
2026-04-18 08:48 -3.36199 49.60093 35932 ft 453 kts 279°
2026-04-18 08:48 -3.35219 49.53882 35935 ft 451 kts 279°
2026-04-18 08:49 -3.34240 49.47682 35935 ft 451 kts 279°
2026-04-18 08:49 -3.33258 49.41472 35935 ft 451 kts 279°
2026-04-18 08:50 -3.32282 49.35305 35935 ft 451 kts 279°
2026-04-18 08:50 -3.31302 49.29108 35935 ft 451 kts 279°
2026-04-18 08:51 -3.30338 49.23021 35934 ft 440 kts 279°
2026-04-18 08:51 -3.29372 49.16924 35936 ft 447 kts 279°
2026-04-18 08:52 -3.28552 49.11748 35936 ft 451 kts 279°
2026-04-18 08:52 -3.27570 49.05557 35935 ft 450 kts 279°
2026-04-18 08:53 -3.26598 48.99426 35935 ft 449 kts 279°
2026-04-18 08:53 -3.25613 48.93215 35935 ft 449 kts 279°
2026-04-18 08:54 -3.24638 48.87076 35935 ft 449 kts 279°
2026-04-18 08:54 -3.23658 48.80903 35935 ft 449 kts 279°
2026-04-18 08:55 -3.22677 48.74725 35935 ft 450 kts 279°
2026-04-18 08:55 -3.21695 48.68546 35935 ft 450 kts 279°
2026-04-18 08:56 -3.20711 48.62359 35935 ft 450 kts 279°
2026-04-18 08:56 -3.19726 48.56161 35935 ft 451 kts 279°
2026-04-18 08:57 -3.18247 48.46867 35935 ft 451 kts 279°
2026-04-18 08:57 -3.17260 48.40665 35935 ft 452 kts 279°
2026-04-18 08:58 -3.16271 48.34457 35935 ft 453 kts 279°
2026-04-18 08:58 -3.15280 48.28232 35935 ft 453 kts 279°
2026-04-18 08:59 -3.14288 48.22010 35935 ft 453 kts 279°
2026-04-18 08:59 -3.13295 48.15783 35935 ft 453 kts 279°
2026-04-18 09:00 -3.12309 48.09601 35935 ft 453 kts 279°
2026-04-18 09:00 -3.11312 48.03353 35935 ft 453 kts 279°
2026-04-18 09:01 -3.10323 47.97159 35935 ft 453 kts 279°
2026-04-18 09:01 -3.09331 47.90943 35935 ft 453 kts 279°
2026-04-18 09:02 -3.08338 47.84727 35935 ft 453 kts 279°
2026-04-18 09:02 -3.07345 47.78511 35935 ft 453 kts 279°
2026-04-18 09:03 -3.06352 47.72290 35935 ft 453 kts 279°
2026-04-18 09:03 -3.05358 47.66070 35935 ft 453 kts 279°
2026-04-18 09:04 -3.04364 47.59860 35935 ft 452 kts 279°
2026-04-18 09:04 -3.03368 47.53641 35935 ft 452 kts 279°
2026-04-18 09:05 -3.02373 47.47431 35935 ft 452 kts 279°
2026-04-18 09:05 -3.01382 47.41233 35935 ft 451 kts 279°
2026-04-18 09:06 -3.00391 47.35037 35935 ft 451 kts 279°
2026-04-18 09:06 -2.99400 47.28844 35935 ft 450 kts 279°
2026-04-18 09:07 -2.98410 47.22657 35935 ft 450 kts 279°
2026-04-18 09:07 -2.97421 47.16479 35935 ft 450 kts 279°
2026-04-18 09:08 -2.96431 47.10291 35935 ft 450 kts 279°
2026-04-18 09:08 -2.95445 47.04109 35935 ft 450 kts 279°
2026-04-18 09:09 -2.94458 46.97934 35935 ft 450 kts 279°
2026-04-18 09:09 -2.93469 46.91753 35935 ft 450 kts 279°
2026-04-18 09:10 -2.92479 46.85568 35935 ft 450 kts 279°
2026-04-18 09:10 -2.91489 46.79386 35935 ft 450 kts 279°
2026-04-18 09:11 -2.90497 46.73200 35935 ft 451 kts 279°
2026-04-18 09:11 -2.89513 46.67057 35935 ft 451 kts 279°
2026-04-18 09:12 -2.88519 46.60859 35935 ft 451 kts 279°
2026-04-18 09:12 -2.87522 46.54648 35935 ft 452 kts 279°
2026-04-18 09:13 -2.86526 46.48442 35935 ft 452 kts 279°
2026-04-18 09:13 -2.85530 46.42232 35935 ft 453 kts 279°
2026-04-18 09:14 -2.84531 46.36016 35935 ft 453 kts 279°
2026-04-18 09:14 -2.83530 46.29784 35935 ft 453 kts 279°
2026-04-18 09:15 -2.82529 46.23555 35935 ft 454 kts 279°
2026-04-18 09:15 -2.81528 46.17325 35935 ft 454 kts 279°
2026-04-18 09:16 -2.80525 46.11089 35935 ft 454 kts 279°
2026-04-18 09:16 -2.79522 46.04854 35935 ft 454 kts 279°
2026-04-18 09:17 -2.78518 45.98618 35935 ft 454 kts 279°
2026-04-18 09:17 -2.77516 45.92390 35935 ft 454 kts 279°
2026-04-18 09:18 -2.76516 45.86180 35935 ft 454 kts 279°
2026-04-18 09:18 -2.75511 45.79944 35935 ft 454 kts 279°
2026-04-18 09:19 -2.74506 45.73708 35935 ft 454 kts 279°
2026-04-18 09:19 -2.73502 45.67476 35935 ft 454 kts 279°
2026-04-18 09:20 -2.72495 45.61234 35935 ft 454 kts 279°
2026-04-18 09:20 -2.71489 45.54994 35935 ft 454 kts 279°
2026-04-18 09:21 -2.70482 45.48755 35935 ft 455 kts 279°
2026-04-18 09:21 -2.69473 45.42504 35935 ft 455 kts 279°
2026-04-18 09:22 -2.68465 45.36259 35935 ft 455 kts 279°
2026-04-18 09:22 -2.67456 45.30018 35935 ft 455 kts 279°
2026-04-18 09:23 -2.66448 45.23774 35935 ft 455 kts 279°
2026-04-18 09:23 -2.65436 45.17514 35935 ft 455 kts 279°
2026-04-18 09:24 -2.64426 45.11266 35935 ft 455 kts 279°
2026-04-18 09:24 -2.63416 45.05022 35934 ft 455 kts 279°
2026-04-18 09:25 -2.62411 44.98811 35935 ft 455 kts 279°
2026-04-18 09:25 -2.61401 44.92570 35935 ft 455 kts 279°
2026-04-18 09:26 -2.60389 44.86318 35935 ft 455 kts 279°
2026-04-18 09:26 -2.59377 44.80068 35935 ft 455 kts 279°
2026-04-18 09:27 -2.58364 44.73818 35935 ft 455 kts 279°
2026-04-18 09:27 -2.57346 44.67537 35935 ft 455 kts 279°
2026-04-18 09:28 -2.56334 44.61289 35934 ft 455 kts 279°
2026-04-18 09:28 -2.55320 44.55041 35928 ft 455 kts 279°
2026-04-18 09:29 -2.54307 44.48793 35935 ft 455 kts 279°
2026-04-18 09:29 -2.53301 44.42589 35935 ft 454 kts 279°
2026-04-18 09:30 -2.52290 44.36364 35935 ft 454 kts 279°
2026-04-18 09:30 -2.51281 44.30138 35935 ft 454 kts 279°
2026-04-18 09:31 -2.50271 44.23913 35935 ft 454 kts 279°
2026-04-18 09:31 -2.49258 44.17683 35935 ft 453 kts 279°
2026-04-18 09:32 -2.48248 44.11465 35935 ft 453 kts 279°
2026-04-18 09:32 -2.47238 44.05255 35935 ft 453 kts 279°
2026-04-18 09:33 -2.46231 43.99046 35935 ft 453 kts 279°
2026-04-18 09:33 -2.45258 43.92828 35935 ft 453 kts 279°
2026-04-18 09:34 -2.44284 43.86609 35935 ft 453 kts 279°
2026-04-18 09:34 -2.43309 43.80387 35935 ft 452 kts 279°
2026-04-18 09:35 -2.42334 43.74174 35935 ft 452 kts 279°
2026-04-18 09:35 -2.41359 43.67958 35935 ft 453 kts 279°
2026-04-18 09:36 -2.40387 43.61744 35935 ft 453 kts 279°
2026-04-18 09:36 -2.39412 43.55521 35935 ft 453 kts 279°
2026-04-18 09:37 -2.38438 43.49303 35935 ft 453 kts 279°
2026-04-18 09:37 -2.37468 43.43122 35935 ft 452 kts 279°
2026-04-18 09:38 -2.36494 43.36914 35935 ft 452 kts 279°
2026-04-18 09:38 -2.35518 43.30698 35935 ft 453 kts 279°
2026-04-18 09:39 -2.34540 43.24472 35935 ft 453 kts 279°
2026-04-18 09:39 -2.33563 43.18254 35935 ft 453 kts 279°
2026-04-18 09:40 -2.32750 43.13078 35935 ft 453 kts 279°
2026-04-18 09:40 -2.31772 43.06858 35935 ft 453 kts 279°
2026-04-18 09:41 -2.30793 43.00626 35935 ft 453 kts 279°
2026-04-18 09:41 -2.29813 42.94398 35935 ft 454 kts 279°
2026-04-18 09:42 -2.28834 42.88170 35935 ft 454 kts 279°
2026-04-18 09:42 -2.27853 42.81941 35935 ft 454 kts 279°
2026-04-18 09:43 -2.26872 42.75704 35935 ft 454 kts 279°
2026-04-18 09:43 -2.25893 42.69473 35935 ft 454 kts 279°
2026-04-18 09:44 -2.24912 42.63244 35935 ft 454 kts 279°
2026-04-18 09:44 -2.23930 42.57015 35935 ft 454 kts 279°
2026-04-18 09:45 -2.22947 42.50780 35935 ft 454 kts 279°
2026-04-18 09:45 -2.21965 42.44548 35935 ft 454 kts 279°
2026-04-18 09:46 -2.20911 42.38324 35935 ft 454 kts 280°
2026-04-18 09:46 -2.19810 42.32112 35935 ft 454 kts 280°
2026-04-18 09:47 -2.18716 42.25896 35935 ft 454 kts 279°
2026-04-18 09:47 -2.17622 42.19662 35935 ft 454 kts 280°
2026-04-18 09:48 -2.16532 42.13449 35935 ft 454 kts 280°
2026-04-18 09:48 -2.15442 42.07229 35935 ft 454 kts 280°
2026-04-18 09:49 -2.14359 42.01046 35935 ft 454 kts 280°
2026-04-18 09:49 -2.13270 41.94829 35935 ft 454 kts 280°
2026-04-18 09:50 -2.12179 41.88612 35935 ft 454 kts 280°
2026-04-18 09:50 -2.11087 41.82387 35935 ft 454 kts 280°
2026-04-18 09:51 -2.09996 41.76160 35935 ft 455 kts 279°
2026-04-18 09:51 -2.08902 41.69926 35935 ft 455 kts 279°
2026-04-18 09:52 -2.07807 41.63690 35935 ft 456 kts 279°
2026-04-18 09:52 -2.06710 41.57441 35934 ft 456 kts 279°
2026-04-18 09:53 -2.05611 41.51185 35935 ft 457 kts 279°
2026-04-18 09:53 -2.04514 41.44924 35935 ft 457 kts 279°
2026-04-18 09:54 -2.03509 41.38648 35935 ft 458 kts 278°
2026-04-18 09:54 -2.02503 41.32358 35935 ft 458 kts 278°
2026-04-18 09:55 -2.01494 41.26069 35935 ft 458 kts 278°
2026-04-18 09:55 -2.00484 41.19781 35935 ft 458 kts 278°
2026-04-18 09:56 -1.99474 41.13495 35935 ft 458 kts 278°
2026-04-18 09:56 -1.98464 41.07203 35934 ft 458 kts 278°
2026-04-18 09:57 -1.97455 41.00923 35936 ft 458 kts 278°
2026-04-18 09:57 -1.96445 40.94640 35937 ft 458 kts 278°
2026-04-18 09:58 -1.95439 40.88383 35938 ft 459 kts 278°
2026-04-18 09:58 -1.94423 40.82069 35941 ft 460 kts 278°
2026-04-18 09:59 -1.93406 40.75750 35945 ft 461 kts 278°
2026-04-18 10:00 -1.91876 40.66241 35954 ft 462 kts 278°
2026-04-18 10:00 -1.90852 40.59886 35961 ft 463 kts 278°
2026-04-18 10:01 -1.89828 40.53527 35971 ft 464 kts 278°
2026-04-18 10:01 -1.88801 40.47142 35984 ft 465 kts 278°
2026-04-18 10:02 -1.87773 40.40763 35998 ft 466 kts 278°
2026-04-18 10:02 -1.86742 40.34368 36013 ft 466 kts 278°
2026-04-18 10:03 -1.85711 40.27969 36029 ft 467 kts 278°
2026-04-18 10:03 -1.84676 40.21551 36043 ft 467 kts 278°
2026-04-18 10:04 -1.83686 40.15125 36056 ft 468 kts 278°
2026-04-18 10:04 -1.82700 40.08699 36064 ft 469 kts 278°
2026-04-18 10:05 -1.81709 40.02252 36068 ft 469 kts 278°
2026-04-18 10:05 -1.80718 39.95809 36072 ft 470 kts 278°
2026-04-18 10:06 -1.79721 39.89334 36071 ft 471 kts 278°
2026-04-18 10:06 -1.78727 39.82876 36068 ft 470 kts 278°
2026-04-18 10:07 -1.78253 39.76367 36065 ft 470 kts 270°
2026-04-18 10:07 -1.78247 39.69838 36042 ft 470 kts 269°
2026-04-18 10:07 -1.78245 39.66599 35622 ft 472 kts 269°
2026-04-18 10:08 -1.78241 39.63281 35172 ft 470 kts 270°
2026-04-18 10:08 -1.78234 39.60023 34793 ft 470 kts 270°
2026-04-18 10:08 -1.78226 39.56748 34466 ft 472 kts 270°
2026-04-18 10:08 -1.78218 39.53494 34144 ft 474 kts 270°
2026-04-18 10:09 -1.78208 39.50150 33815 ft 475 kts 270°
2026-04-18 10:09 -1.78199 39.46888 33494 ft 476 kts 270°
2026-04-18 10:09 -1.78190 39.43548 33166 ft 476 kts 270°
2026-04-18 10:09 -1.78181 39.40271 32844 ft 477 kts 270°
2026-04-18 10:10 -1.78172 39.36958 32520 ft 477 kts 270°
2026-04-18 10:10 -1.78162 39.33637 32194 ft 478 kts 270°
2026-04-18 10:10 -1.78154 39.30269 31865 ft 480 kts 269°
2026-04-18 10:10 -1.78143 39.26928 31540 ft 480 kts 269°
2026-04-18 10:11 -1.78130 39.23592 31214 ft 481 kts 270°
2026-04-18 10:11 -1.78122 39.20300 30895 ft 481 kts 269°
2026-04-18 10:11 -1.78109 39.16959 30570 ft 480 kts 270°
2026-04-18 10:11 -1.78099 39.13622 30243 ft 481 kts 269°
2026-04-18 10:12 -1.78090 39.10263 29918 ft 483 kts 270°
2026-04-18 10:12 -1.78081 39.06922 29594 ft 484 kts 269°
2026-04-18 10:12 -1.78069 39.03562 29272 ft 485 kts 269°
2026-04-18 10:12 -1.78054 39.00189 28946 ft 485 kts 269°
2026-04-18 10:13 -1.78046 38.96805 28621 ft 487 kts 270°
2026-04-18 10:13 -1.78038 38.93414 28295 ft 489 kts 270°
2026-04-18 10:13 -1.78026 38.90014 27971 ft 490 kts 270°
2026-04-18 10:13 -1.78013 38.86605 27643 ft 491 kts 270°
2026-04-18 10:14 -1.78005 38.83199 27319 ft 491 kts 270°
2026-04-18 10:14 -1.77990 38.79774 26993 ft 491 kts 270°
2026-04-18 10:14 -1.77977 38.76369 26669 ft 493 kts 270°
2026-04-18 10:14 -1.77965 38.72919 26342 ft 494 kts 270°
2026-04-18 10:15 -1.77950 38.69494 26019 ft 494 kts 270°
2026-04-18 10:15 -1.77944 38.66065 25725 ft 494 kts 270°
2026-04-18 10:15 -1.77934 38.62640 25424 ft 491 kts 270°
2026-04-18 10:15 -1.77924 38.59228 25123 ft 489 kts 270°
2026-04-18 10:16 -1.77912 38.55847 24824 ft 484 kts 270°
2026-04-18 10:16 -1.77897 38.52548 24527 ft 474 kts 270°
2026-04-18 10:16 -1.77887 38.49279 24225 ft 467 kts 270°
2026-04-18 10:16 -1.77874 38.46060 23926 ft 463 kts 270°
2026-04-18 10:17 -1.77863 38.42845 23625 ft 461 kts 270°
2026-04-18 10:17 -1.77851 38.39643 23325 ft 459 kts 270°
2026-04-18 10:17 -1.77840 38.36460 23024 ft 457 kts 270°
2026-04-18 10:17 -1.77829 38.33297 22723 ft 455 kts 270°
2026-04-18 10:18 -1.77817 38.30136 22422 ft 452 kts 270°
2026-04-18 10:18 -1.77806 38.27003 22122 ft 451 kts 270°
2026-04-18 10:18 -1.77794 38.23868 21821 ft 449 kts 271°
2026-04-18 10:18 -1.77783 38.20756 21521 ft 449 kts 271°
2026-04-18 10:19 -1.77771 38.17645 21221 ft 449 kts 271°
2026-04-18 10:19 -1.77760 38.14520 20920 ft 450 kts 271°
2026-04-18 10:19 -1.77748 38.11391 20619 ft 450 kts 271°
2026-04-18 10:19 -1.77737 38.08264 20318 ft 449 kts 271°
2026-04-18 10:20 -1.77725 38.05153 20019 ft 447 kts 271°
2026-04-18 10:20 -1.77713 38.02056 19717 ft 442 kts 271°
2026-04-18 10:20 -1.77702 37.99001 19416 ft 438 kts 272°
2026-04-18 10:20 -1.77690 37.95970 19115 ft 435 kts 272°
2026-04-18 10:21 -1.77679 37.92948 18814 ft 433 kts 272°
2026-04-18 10:21 -1.77667 37.89944 18514 ft 431 kts 272°
2026-04-18 10:21 -1.77656 37.86964 18214 ft 429 kts 272°
2026-04-18 10:21 -1.77644 37.83984 17912 ft 426 kts 272°
2026-04-18 10:22 -1.77633 37.81032 17612 ft 424 kts 272°
2026-04-18 10:22 -1.77621 37.78103 17312 ft 421 kts 272°
2026-04-18 10:22 -1.77610 37.75186 17011 ft 418 kts 272°
2026-04-18 10:22 -1.77599 37.72286 16729 ft 416 kts 272°
2026-04-18 10:23 -1.77587 37.69415 16479 ft 413 kts 272°
2026-04-18 10:23 -1.77576 37.66550 16229 ft 410 kts 272°
2026-04-18 10:23 -1.77565 37.63731 15976 ft 399 kts 272°
2026-04-18 10:23 -1.77554 37.61020 15727 ft 390 kts 272°
2026-04-18 10:24 -1.77543 37.58350 15474 ft 378 kts 272°
2026-04-18 10:24 -1.77533 37.55788 15220 ft 364 kts 273°
2026-04-18 10:24 -1.77523 37.53279 14970 ft 358 kts 273°
2026-04-18 10:24 -1.77513 37.50810 14752 ft 352 kts 273°
2026-04-18 10:25 -1.77503 37.48381 14536 ft 348 kts 272°
2026-04-18 10:25 -1.77493 37.45962 14324 ft 350 kts 272°
2026-04-18 10:25 -1.77483 37.43511 14112 ft 353 kts 272°
2026-04-18 10:25 -1.77473 37.41043 13922 ft 357 kts 272°
2026-04-18 10:26 -1.77463 37.38559 13747 ft 360 kts 271°
2026-04-18 10:26 -1.77452 37.36044 13572 ft 363 kts 271°
2026-04-18 10:26 -1.77442 37.33524 13398 ft 362 kts 272°
2026-04-18 10:26 -1.77432 37.31012 13221 ft 359 kts 272°
2026-04-18 10:27 -1.77425 37.29366 13106 ft 358 kts 272°
2026-04-18 10:27 -1.77411 37.26037 12871 ft 357 kts 272°
2026-04-18 10:27 -1.77404 37.24388 12755 ft 357 kts 272°
2026-04-18 10:27 -1.77393 37.21907 12579 ft 356 kts 271°
2026-04-18 10:28 -1.77383 37.19438 12404 ft 356 kts 271°
2026-04-18 10:28 -1.77374 37.16964 12229 ft 355 kts 271°
2026-04-18 10:28 -1.77363 37.14500 12054 ft 354 kts 271°
2026-04-18 10:28 -1.77352 37.12041 11878 ft 354 kts 271°
2026-04-18 10:29 -1.77342 37.09584 11703 ft 353 kts 271°
2026-04-18 10:29 -1.77332 37.07141 11527 ft 349 kts 271°
2026-04-18 10:29 -1.77322 37.04734 11351 ft 344 kts 271°
2026-04-18 10:29 -1.77312 37.02353 11174 ft 340 kts 271°
2026-04-18 10:30 -1.77298 36.99240 10941 ft 337 kts 271°
2026-04-18 10:30 -1.77291 36.97660 10823 ft 337 kts 271°
2026-04-18 10:30 -1.77281 36.95319 10648 ft 337 kts 271°
2026-04-18 10:30 -1.77271 36.92987 10473 ft 335 kts 271°
2026-04-18 10:31 -1.77260 36.90684 10296 ft 328 kts 271°
2026-04-18 10:31 -1.77250 36.88426 10119 ft 321 kts 271°
2026-04-18 10:31 -1.77241 36.86221 9942 ft 314 kts 271°
2026-04-18 10:31 -1.77231 36.84047 9765 ft 309 kts 271°
2026-04-18 10:32 -1.77019 36.81941 9573 ft 304 kts 287°
2026-04-18 10:32 -1.76083 36.80078 9398 ft 298 kts 311°
2026-04-18 10:32 -1.74550 36.78764 9251 ft 284 kts 334°
2026-04-18 10:32 -1.72768 36.78156 9094 ft 270 kts 353°
2026-04-18 10:33 -1.70940 36.77959 8951 ft 259 kts 360°
2026-04-18 10:33 -1.69167 36.77887 8809 ft 250 kts
2026-04-18 10:33 -1.67462 36.77845 8667 ft 242 kts
2026-04-18 10:33 -1.65811 36.77794 8525 ft 234 kts
2026-04-18 10:34 -1.64212 36.77737 8381 ft 226 kts
2026-04-18 10:34 -1.62665 36.77676 8238 ft 218 kts
2026-04-18 10:34 -1.61179 36.77615 8168 ft 209 kts
2026-04-18 10:34 -1.59755 36.77555 8161 ft 202 kts
2026-04-18 10:35 -1.58358 36.77494 8164 ft 198 kts 360°
2026-04-18 10:35 -1.57012 36.77435 8157 ft 191 kts 358°
2026-04-18 10:35 -1.55703 36.77378 8149 ft 187 kts 355°
2026-04-18 10:35 -1.54398 36.77319 8147 ft 188 kts 354°
2026-04-18 10:36 -1.53078 36.77260 8160 ft 192 kts 353°
2026-04-18 10:36 -1.51772 36.77202 8208 ft 184 kts 353°
2026-04-18 10:36 -1.50512 36.77145 8172 ft 180 kts 352°
2026-04-18 10:36 -1.49269 36.77089 8156 ft 177 kts 352°
2026-04-18 10:37 -1.48062 36.77035 8137 ft 175 kts 352°
2026-04-18 10:37 -1.46830 36.76980 8135 ft 176 kts 352°
2026-04-18 10:37 -1.45620 36.76925 8132 ft 177 kts 352°
2026-04-18 10:37 -1.44386 36.76948 8107 ft 178 kts
2026-04-18 10:38 -1.43277 36.77484 8105 ft 183 kts 31°
2026-04-18 10:38 -1.42387 36.78413 8133 ft 183 kts 46°
2026-04-18 10:38 -1.41623 36.79434 8095 ft 185 kts 50°
2026-04-18 10:38 -1.40876 36.80473 7869 ft 187 kts 50°
2026-04-18 10:39 -1.40111 36.81529 7609 ft 187 kts 50°
2026-04-18 10:39 -1.39358 36.82567 7355 ft 181 kts 50°
2026-04-18 10:39 -1.38635 36.83561 7135 ft 172 kts 50°
2026-04-18 10:39 -1.37944 36.84512 6904 ft 169 kts 50°
2026-04-18 10:40 -1.37249 36.85466 6679 ft 170 kts 50°
2026-04-18 10:40 -1.36555 36.86421 6466 ft 170 kts 50°
2026-04-18 10:40 -1.35866 36.87367 6259 ft 167 kts 51°
2026-04-18 10:40 -1.35191 36.88296 6064 ft 163 kts 51°
2026-04-18 10:41 -1.34532 36.89201 5879 ft 159 kts 51°
2026-04-18 10:41 -1.33899 36.90071 5700 ft 151 kts 53°
2026-04-18 10:41 -1.33282 36.90919 5519 ft 149 kts 55°
2026-04-18 10:41 -1.32691 36.91734 5337 ft 138 kts 56°
2026-04-18 10:42 -1.32223 36.92382 5337 ft 94 kts 52°
2026-04-18 10:42 -1.31927 36.92781 5336 ft 51 kts 52°
2026-04-18 10:42 -1.31783 36.92977 5336 ft 27 kts 54°
2026-04-18 10:42 -1.31687 36.93105 5336 ft 19 kts 53°
2026-04-18 10:43 -1.31623 36.93195 5336 ft 13 kts 55°
2026-04-18 10:43 -1.31585 36.93248 5336 ft 6 kts 54°
2026-04-18 10:43 -1.31564 36.93287 5336 ft 6 kts 83°
2026-04-18 10:43 -1.31575 36.93328 5336 ft 6 kts 121°
2026-04-18 10:44 -1.31604 36.93358 5336 ft 6 kts 138°
2026-04-18 10:44 -1.31636 36.93382 5336 ft 6 kts 144°
2026-04-18 10:44 -1.31668 36.93405 5336 ft 6 kts 143°
2026-04-18 10:44 -1.31698 36.93427 5336 ft 5 kts 143°
2026-04-18 10:45 -1.31728 36.93449 5336 ft 5 kts 144°
2026-04-18 10:45 -1.31757 36.93469 5336 ft 5 kts 144°
2026-04-18 10:45 -1.31797 36.93486 5336 ft 7 kts 186°
2026-04-18 10:45 -1.31837 36.93461 5336 ft 7 kts 230°
2026-04-18 10:46 -1.31866 36.93423 5336 ft 7 kts 234°
2026-04-18 10:46 -1.31892 36.93386 5336 ft 3 kts 234°
2026-04-18 10:46 -1.31893 36.93386 5336 ft 0 kts 234°
2026-04-18 10:47 -1.31905 36.93369 5336 ft 5 kts 234°
2026-04-18 10:47 -1.31924 36.93342 5336 ft 5 kts 234°
2026-04-18 10:48 -1.31943 36.93317 5336 ft 4 kts 234°
2026-04-18 10:48 -1.31961 36.93292 5336 ft 4 kts 234°
2026-04-18 10:48 -1.31979 36.93268 5336 ft 4 kts 232°
2026-04-18 10:48 -1.31996 36.93246 5336 ft 4 kts 232°
2026-04-18 10:49 -1.32011 36.93225 5336 ft 4 kts 233°
2026-04-18 10:49 -1.32035 36.93193 5336 ft 9 kts 234°
2026-04-18 10:49 -1.32087 36.93119 5336 ft 16 kts 233°
2026-04-18 10:49 -1.32159 36.93020 5336 ft 18 kts 234°
2026-04-18 10:50 -1.32226 36.92929 5336 ft 14 kts 234°
2026-04-18 10:50 -1.32283 36.92850 5336 ft 14 kts 233°
2026-04-18 10:50 -1.32337 36.92776 5336 ft 13 kts 234°
2026-04-18 10:50 -1.32385 36.92709 5336 ft 10 kts 234°
2026-04-18 10:51 -1.32424 36.92656 5336 ft 9 kts 234°
2026-04-18 10:51 -1.32461 36.92605 5336 ft 9 kts 234°
2026-04-18 10:51 -1.32496 36.92556 5336 ft 8 kts 234°
2026-04-18 10:51 -1.32530 36.92509 5336 ft 8 kts 234°
2026-04-18 10:52 -1.32562 36.92464 5336 ft 8 kts 234°
2026-04-18 10:52 -1.32593 36.92422 5336 ft 7 kts 234°
2026-04-18 10:52 -1.32622 36.92381 5336 ft 7 kts 234°
2026-04-18 10:52 -1.32650 36.92342 5336 ft 7 kts 233°
2026-04-18 10:53 -1.32678 36.92305 5336 ft 7 kts 234°
2026-04-18 10:53 -1.32703 36.92270 5336 ft 5 kts 235°
2026-04-18 10:53 -1.32721 36.92244 5336 ft 4 kts 233°
2026-04-18 10:53 -1.32740 36.92221 5336 ft 4 kts 224°
2026-04-18 10:54 -1.32764 36.92205 5336 ft 4 kts 195°
2026-04-18 10:54 -1.32791 36.92208 5336 ft 4 kts 159°
2026-04-18 10:54 -1.32814 36.92221 5336 ft 4 kts 147°
2026-04-18 10:54 -1.32834 36.92235 5336 ft 3 kts 144°
2026-04-18 10:55 -1.32865 36.92254 5336 ft 7 kts 160°
2026-04-18 10:55 -1.32912 36.92250 5336 ft 7 kts 199°
2026-04-18 10:55 -1.32957 36.92233 5336 ft 7 kts 198°
2026-04-18 10:55 -1.33001 36.92221 5336 ft 7 kts 189°
2026-04-18 10:56 -1.33046 36.92217 5336 ft 6 kts 181°
2026-04-18 10:56 -1.33090 36.92220 5336 ft 6 kts 172°
2026-04-18 10:56 -1.33131 36.92229 5336 ft 6 kts 163°
2026-04-18 10:56 -1.33169 36.92243 5336 ft 6 kts 156°
2026-04-18 10:57 -1.33204 36.92262 5336 ft 6 kts 150°
2026-04-18 10:57 -1.33240 36.92275 5336 ft 5 kts 168°
2026-04-18 10:57 -1.33276 36.92279 5336 ft 5 kts 175°
2026-04-18 10:57 -1.33312 36.92281 5336 ft 5 kts 177°
2026-04-18 10:58 -1.33346 36.92287 5336 ft 5 kts 163°
2026-04-18 10:58 -1.33375 36.92302 5336 ft 5 kts 148°
2026-04-18 10:58 -1.33401 36.92319 5336 ft 4 kts 143°
2026-04-18 10:58 -1.33424 36.92340 5336 ft 4 kts 132°
2026-04-18 10:59 -1.33437 36.92365 5336 ft 4 kts 108°
2026-04-18 10:59 -1.33441 36.92392 5336 ft 4 kts 90°
2026-04-18 10:59 -1.33441 36.92418 5336 ft 4 kts 86°
2026-04-18 10:59 -1.33437 36.92443 5336 ft 3 kts 75°
2026-04-18 11:00 -1.33428 36.92464 5336 ft 3 kts 62°
2026-04-18 11:00 -1.33416 36.92483 5336 ft 3 kts 52°
2026-04-18 11:00 -1.33404 36.92500 5336 ft 3 kts 54°
2026-04-18 11:00 -1.33392 36.92515 5336 ft 3 kts 54°
2026-04-18 11:01 -1.33381 36.92530 5336 ft 3 kts 43°
2026-04-18 11:01 -1.33366 36.92538 5336 ft 2 kts 19°
2026-04-18 11:01 -1.33351 36.92542 5336 ft 2 kts 11°
2026-04-18 11:02 -1.33324 36.92543 5336 ft 2 kts 356°
2026-04-18 11:02 -1.33313 36.92542 5336 ft 2 kts 356°
2026-04-18 11:02 -1.33303 36.92541 5336 ft 1 kts 353°
2026-04-18 11:02 -1.33294 36.92540 5336 ft 1 kts 351°
2026-04-18 11:03 -1.33273 36.92535 5336 ft 5 kts 345°
2026-04-18 11:03 -1.33248 36.92525 5336 ft 4 kts 308°
2026-04-18 11:03 -1.33245 36.92521 5336 ft 0 kts 308°
2026-04-18 11:03 -1.33240 36.92514 5336 ft 4 kts 308°
2026-04-18 11:04 -1.33235 36.92503 5336 ft 0 kts 289°
2026-04-18 11:04 -1.33233 36.92498 5336 ft 3 kts 289°
2026-04-18 11:04 -1.33229 36.92487 5336 ft 0 kts 289°